owner,sensor,date,latitude,longitude,vertical_datum,wind_speed,wind_to_direction,wind_speed_of_gust,qcFlag 
TABS,ioos:station:wmo:42047:1,2009-10-01T00:00:00Z,27.8966,-93.5973,4.0,3.64917799,119.3752115,4.38,'11111222,11111222,11111222' 
TABS,ioos:station:wmo:42047:1,2009-10-01T00:30:00Z,27.8966,-93.5973,4.0,3.764465433,132.8473579,4.52,'11111222,11111222,11111222' 
TABS,ioos:station:wmo:42047:1,2009-10-01T01:00:00Z,27.8966,-93.5973,4.0,3.660833238,118.7357222,4.19,'11111222,11111222,11111222' 
TABS,ioos:station:wmo:42047:1,2009-10-01T01:30:00Z,27.8966,-93.5973,4.0,3.781335743,118.5987209,4.65,'11111222,11111222,11111222' 
TABS,ioos:station:wmo:42047:1,2009-10-01T02:00:00Z,27.8966,-93.5973,4.0,3.704726711,121.7598267,4.51,'11111222,11111222,11111222' 
TABS,ioos:station:wmo:42047:1,2009-10-01T02:30:00Z,27.8966,-93.5973,4.0,4.039430653,117.8976267,4.92,'11111222,11111222,11111222' 
TABS,ioos:station:wmo:42047:1,2009-10-01T03:00:00Z,27.8966,-93.5973,4.0,4.554031181,128.581544,5.51,'11111222,11111222,11111222' 
TABS,ioos:station:wmo:42047:1,2009-10-01T03:30:00Z,27.8966,-93.5973,4.0,5.231873469,128.4035928,6.32,'11111222,11111222,11111222' 
TABS,ioos:station:wmo:42047:1,2009-10-01T04:00:00Z,27.8966,-93.5973,4.0,5.526119796,129.5669472,6.9,'11111222,11111222,11111222' 
TABS,ioos:station:wmo:42047:1,2009-10-01T04:30:00Z,27.8966,-93.5973,4.0,5.927647088,130.7588818,6.73,'11111222,11111222,11111222' 
TABS,ioos:station:wmo:42047:1,2009-10-01T05:00:00Z,27.8966,-93.5973,4.0,5.734640355,134.9296676,6.82,'11111222,11111222,11111222' 
TABS,ioos:station:wmo:42047:1,2009-10-01T05:30:00Z,27.8966,-93.5973,4.0,6.435060217,135.6299128,7.91,'11111222,11111222,11111222' 
TABS,ioos:station:wmo:42047:1,2009-10-01T06:00:00Z,27.8966,-93.5973,4.0,7.300424645,136.6654179,8.15,'11111222,11111222,11111222' 
TABS,ioos:station:wmo:42047:1,2009-10-01T06:30:00Z,27.8966,-93.5973,4.0,6.769704573,136.6163786,8.12,'11111222,11111222,11111222' 
TABS,ioos:station:wmo:42047:1,2009-10-01T07:00:00Z,27.8966,-93.5973,4.0,6.646773653,141.4751156,7.59,'11111222,11111222,11111222' 
TABS,ioos:station:wmo:42047:1,2009-10-01T07:30:00Z,27.8966,-93.5973,4.0,6.319256285,144.2728958,7.15,'11111222,11111222,11111222' 
TABS,ioos:station:wmo:42047:1,2009-10-01T08:00:00Z,27.8966,-93.5973,4.0,6.446433122,150.850714,7.6,'11111222,11111222,11111222' 
TABS,ioos:station:wmo:42047:1,2009-10-01T08:30:00Z,27.8966,-93.5973,4.0,6.269968102,159.1661332,7.12,'11111222,11111222,11111222' 
TABS,ioos:station:wmo:42047:1,2009-10-01T09:00:00Z,27.8966,-93.5973,4.0,5.75612717,160.6209565,7.07,'11111222,11111222,11111222' 
TABS,ioos:station:wmo:42047:1,2009-10-01T09:30:00Z,27.8966,-93.5973,4.0,6.068648944,161.0577485,6.93,'11111222,11111222,11111222' 
TABS,ioos:station:wmo:42047:1,2009-10-01T10:00:00Z,27.8966,-93.5973,4.0,5.958019805,168.5771466,6.94,'11111222,11111222,11111222' 
TABS,ioos:station:wmo:42047:1,2009-10-01T10:30:00Z,27.8966,-93.5973,4.0,6.152276002,162.8906745,7.13,'11111222,11111222,11111222' 
TABS,ioos:station:wmo:42047:1,2009-10-01T11:00:00Z,27.8966,-93.5973,4.0,5.32819857,175.2633703,6.4,'11111222,11111222,11111222' 
TABS,ioos:station:wmo:42047:1,2009-10-01T11:30:00Z,27.8966,-93.5973,4.0,5.009530916,171.1584166,6.07,'11111222,11111222,11111222' 
TABS,ioos:station:wmo:42047:1,2009-10-01T12:00:00Z,27.8966,-93.5973,4.0,5.214786669,170.2850309,6.26,'11111222,11111222,11111222' 
TABS,ioos:station:wmo:42047:1,2009-10-01T12:30:00Z,27.8966,-93.5973,4.0,5.304045626,173.5049551,6.24,'11111222,11111222,11111222' 
TABS,ioos:station:wmo:42047:1,2009-10-01T13:00:00Z,27.8966,-93.5973,4.0,5.548342095,169.1966154,6.97,'11111222,11111222,11111222' 
TABS,ioos:station:wmo:42047:1,2009-10-01T13:30:00Z,27.8966,-93.5973,4.0,5.702227635,172.239588,6.4,'11111222,11111222,11111222' 
TABS,ioos:station:wmo:42047:1,2009-10-01T14:00:00Z,27.8966,-93.5973,4.0,5.410406639,170.746827,6.47,'11111222,11111222,11111222' 
TABS,ioos:station:wmo:42047:1,2009-10-01T14:30:00Z,27.8966,-93.5973,4.0,5.295016525,162.8656994,6.43,'11111222,11111222,11111222' 
TABS,ioos:station:wmo:42047:1,2009-10-01T15:00:00Z,27.8966,-93.5973,4.0,5.48241735,159.9457209,6.14,'11111222,11111222,11111222' 
TABS,ioos:station:wmo:42047:1,2009-10-01T15:30:00Z,27.8966,-93.5973,4.0,5.725740127,159.1279895,6.58,'11111222,11111222,11111222' 
TABS,ioos:station:wmo:42047:1,2009-10-01T16:00:00Z,27.8966,-93.5973,4.0,6.101360504,159.3672769,7.25,'11111222,11111222,11111222' 
TABS,ioos:station:wmo:42047:1,2009-10-01T16:30:00Z,27.8966,-93.5973,4.0,5.880425155,163.9076314,6.61,'11111222,11111222,11111222' 
TABS,ioos:station:wmo:42047:1,2009-10-01T17:00:00Z,27.8966,-93.5973,4.0,5.899974576,164.6684721,6.82,'11111222,11111222,11111222' 
TABS,ioos:station:wmo:42047:1,2009-10-01T17:30:00Z,27.8966,-93.5973,4.0,6.0508016,163.7817078,6.98,'11111222,11111222,11111222' 
TABS,ioos:station:wmo:42047:1,2009-10-01T18:00:00Z,27.8966,-93.5973,4.0,6.150658501,179.1617974,7.29,'11111222,11111222,11111222' 
TABS,ioos:station:wmo:42047:1,2009-10-01T18:30:00Z,27.8966,-93.5973,4.0,6.073853801,183.87075,6.93,'11111222,11111222,11111222' 
TABS,ioos:station:wmo:42047:1,2009-10-01T19:00:00Z,27.8966,-93.5973,4.0,5.76586507,177.4157031,6.5,'11111222,11111222,11111222' 
TABS,ioos:station:wmo:42047:1,2009-10-01T19:30:00Z,27.8966,-93.5973,4.0,5.447201116,177.05377,6.31,'11111222,11111222,11111222' 
TABS,ioos:station:wmo:42047:1,2009-10-01T20:00:00Z,27.8966,-93.5973,4.0,4.880502023,183.7596124,5.57,'11111222,11111222,11111222' 
TABS,ioos:station:wmo:42047:1,2009-10-01T20:30:00Z,27.8966,-93.5973,4.0,4.8120266,175.9485361,5.66,'11111222,11111222,11111222' 
TABS,ioos:station:wmo:42047:1,2009-10-01T21:00:00Z,27.8966,-93.5973,4.0,4.495019466,172.8435907,5.41,'11111222,11111222,11111222' 
TABS,ioos:station:wmo:42047:1,2009-10-01T21:30:00Z,27.8966,-93.5973,4.0,5.309510335,161.3264321,6.0,'11111222,11111222,11111222' 
TABS,ioos:station:wmo:42047:1,2009-10-01T22:00:00Z,27.8966,-93.5973,4.0,5.630275304,162.8526307,6.2,'11111222,11111222,11111222' 
TABS,ioos:station:wmo:42047:1,2009-10-01T22:30:00Z,27.8966,-93.5973,4.0,5.734003837,166.6910629,6.53,'11111222,11111222,11111222' 
TABS,ioos:station:wmo:42047:1,2009-10-01T23:00:00Z,27.8966,-93.5973,4.0,4.15289056,189.9841904,4.81,'11111222,11111222,11111222' 
TABS,ioos:station:wmo:42047:1,2009-10-01T23:30:00Z,27.8966,-93.5973,4.0,5.476906061,166.6998202,6.49,'11111222,11111222,11111222' 
TABS,ioos:station:wmo:42047:1,2009-10-02T00:00:00Z,27.8966,-93.5973,4.0,6.007936418,167.6989998,6.64,'11111222,11111222,11111222' 
TABS,ioos:station:wmo:42047:1,2009-10-02T00:30:00Z,27.8966,-93.5973,4.0,6.564091712,168.3992923,7.28,'11111222,11111222,11111222' 
TABS,ioos:station:wmo:42047:1,2009-10-02T01:00:00Z,27.8966,-93.5973,4.0,6.313200456,168.2097371,6.82,'11111222,11111222,11111222' 
TABS,ioos:station:wmo:42047:1,2009-10-02T01:30:00Z,27.8966,-93.5973,4.0,6.811783907,162.0440873,7.68,'11111222,11111222,11111222' 
TABS,ioos:station:wmo:42047:1,2009-10-02T02:00:00Z,27.8966,-93.5973,4.0,7.4759481,168.6602438,8.44,'11111222,11111222,11111222' 
TABS,ioos:station:wmo:42047:1,2009-10-02T02:30:00Z,27.8966,-93.5973,4.0,7.10157729,166.3162227,8.03,'11111222,11111222,11111222' 
TABS,ioos:station:wmo:42047:1,2009-10-02T03:00:00Z,27.8966,-93.5973,4.0,7.789640557,169.9453847,8.6,'11111222,11111222,11111222' 
TABS,ioos:station:wmo:42047:1,2009-10-02T03:30:00Z,27.8966,-93.5973,4.0,7.616311443,177.667512,8.52,'11111222,11111222,11111222' 
TABS,ioos:station:wmo:42047:1,2009-10-02T04:00:00Z,27.8966,-93.5973,4.0,8.050962675,177.0098725,9.28,'11111222,11111222,11111222' 
TABS,ioos:station:wmo:42047:1,2009-10-02T04:30:00Z,27.8966,-93.5973,4.0,8.321736598,181.1707519,9.46,'11111222,11111222,11111222' 
TABS,ioos:station:wmo:42047:1,2009-10-02T05:00:00Z,27.8966,-93.5973,4.0,7.487389398,183.9059005,8.51,'11111222,11111222,11111222' 
TABS,ioos:station:wmo:42047:1,2009-10-02T05:30:00Z,27.8966,-93.5973,4.0,8.697798572,185.3437256,10.62,'11111222,11111222,11111222' 
TABS,ioos:station:wmo:42047:1,2009-10-02T06:00:00Z,27.8966,-93.5973,4.0,8.358426885,196.1150545,9.72,'11111222,11111222,11111222' 
TABS,ioos:station:wmo:42047:1,2009-10-02T06:30:00Z,27.8966,-93.5973,4.0,8.245756484,200.9628413,9.44,'11111222,11111222,11111222' 
TABS,ioos:station:wmo:42047:1,2009-10-02T07:00:00Z,27.8966,-93.5973,4.0,8.253120622,195.3161815,9.21,'11111222,11111222,11111222' 
TABS,ioos:station:wmo:42047:1,2009-10-02T07:30:00Z,27.8966,-93.5973,4.0,8.81272943,199.8332965,10.01,'11111222,11111222,11111222' 
TABS,ioos:station:wmo:42047:1,2009-10-02T08:00:00Z,27.8966,-93.5973,4.0,8.250557557,198.808444,9.17,'11111222,11111222,11111222' 
TABS,ioos:station:wmo:42047:1,2009-10-02T08:30:00Z,27.8966,-93.5973,4.0,7.415153404,203.6958985,8.59,'11111222,11111222,11111222' 
TABS,ioos:station:wmo:42047:1,2009-10-02T09:00:00Z,27.8966,-93.5973,4.0,7.523250627,207.5529576,8.6,'11111222,11111222,11111222' 
TABS,ioos:station:wmo:42047:1,2009-10-02T09:30:00Z,27.8966,-93.5973,4.0,8.419649636,201.3845591,9.53,'11111222,11111222,11111222' 
TABS,ioos:station:wmo:42047:1,2009-10-02T10:00:00Z,27.8966,-93.5973,4.0,7.665311474,204.5925741,8.84,'11111222,11111222,11111222' 
TABS,ioos:station:wmo:42047:1,2009-10-02T10:30:00Z,27.8966,-93.5973,4.0,7.958573993,203.4728865,8.67,'11111222,11111222,11111222' 
TABS,ioos:station:wmo:42047:1,2009-10-02T11:00:00Z,27.8966,-93.5973,4.0,7.729379018,215.7877019,10.48,'11111222,11111222,11111222' 
TABS,ioos:station:wmo:42047:1,2009-10-02T11:30:00Z,27.8966,-93.5973,4.0,8.400119047,238.7321769,13.33,'11111222,11111222,11111222' 
TABS,ioos:station:wmo:42047:1,2009-10-02T12:00:00Z,27.8966,-93.5973,4.0,7.270440152,162.1384913,8.73,'11111222,11111222,11111222' 
TABS,ioos:station:wmo:42047:1,2009-10-02T12:30:00Z,27.8966,-93.5973,4.0,5.817843243,163.2161089,7.77,'11111222,11111222,11111222' 
TABS,ioos:station:wmo:42047:1,2009-10-02T13:00:00Z,27.8966,-93.5973,4.0,5.067198437,150.9566568,5.75,'11111222,11111222,11111222' 
TABS,ioos:station:wmo:42047:1,2009-10-02T13:30:00Z,27.8966,-93.5973,4.0,2.719062338,144.7320674,3.32,'11111222,11111222,11111222' 
TABS,ioos:station:wmo:42047:1,2009-10-02T14:00:00Z,27.8966,-93.5973,4.0,1.293754227,209.140776,2.06,'11111222,11111222,11111222' 
TABS,ioos:station:wmo:42047:1,2009-10-02T14:30:00Z,27.8966,-93.5973,4.0,4.505818461,324.7578354,6.46,'11111222,11111222,11111222' 
TABS,ioos:station:wmo:42047:1,2009-10-02T15:00:00Z,27.8966,-93.5973,4.0,4.444963442,310.8948059,4.99,'11111222,11111222,11111222' 
TABS,ioos:station:wmo:42047:1,2009-10-02T15:30:00Z,27.8966,-93.5973,4.0,3.302559613,315.8586517,4.33,'11111222,11111222,11111222' 
TABS,ioos:station:wmo:42047:1,2009-10-02T16:00:00Z,27.8966,-93.5973,4.0,4.518760892,349.2866916,5.9,'11111222,11111222,11111222' 
TABS,ioos:station:wmo:42047:1,2009-10-02T16:30:00Z,27.8966,-93.5973,4.0,3.436509857,39.80526755,4.25,'11111222,11111222,11111222' 
TABS,ioos:station:wmo:42047:1,2009-10-02T17:00:00Z,27.8966,-93.5973,4.0,5.728752046,112.0432183,6.43,'11111222,11111222,11111222' 
TABS,ioos:station:wmo:42047:1,2009-10-02T17:30:00Z,27.8966,-93.5973,4.0,6.483000848,113.8372254,7.48,'11111222,11111222,11111222' 
TABS,ioos:station:wmo:42047:1,2009-10-02T18:00:00Z,27.8966,-93.5973,4.0,6.85320363,115.2192848,7.69,'11111222,11111222,11111222' 
TABS,ioos:station:wmo:42047:1,2009-10-02T18:30:00Z,27.8966,-93.5973,4.0,6.734574968,107.0092852,7.75,'11111222,11111222,11111222' 
TABS,ioos:station:wmo:42047:1,2009-10-02T19:00:00Z,27.8966,-93.5973,4.0,6.939077749,120.4826404,8.13,'11111222,11111222,11111222' 
TABS,ioos:station:wmo:42047:1,2009-10-02T19:30:00Z,27.8966,-93.5973,4.0,6.204715948,133.1063949,7.15,'11111222,11111222,11111222' 
TABS,ioos:station:wmo:42047:1,2009-10-02T20:00:00Z,27.8966,-93.5973,4.0,6.651691514,144.4225629,7.29,'11111222,11111222,11111222' 
TABS,ioos:station:wmo:42047:1,2009-10-02T20:30:00Z,27.8966,-93.5973,4.0,5.857687257,146.0660656,6.64,'11111222,11111222,11111222' 
TABS,ioos:station:wmo:42047:1,2009-10-02T21:00:00Z,27.8966,-93.5973,4.0,6.08276253,152.5926991,7.23,'11111222,11111222,11111222' 
TABS,ioos:station:wmo:42047:1,2009-10-02T21:30:00Z,27.8966,-93.5973,4.0,6.818746219,156.8568404,7.82,'11111222,11111222,11111222' 
TABS,ioos:station:wmo:42047:1,2009-10-02T22:00:00Z,27.8966,-93.5973,4.0,6.959554583,169.8205679,8.28,'11111222,11111222,11111222' 
TABS,ioos:station:wmo:42047:1,2009-10-02T22:30:00Z,27.8966,-93.5973,4.0,6.278542825,170.9279768,7.0,'11111222,11111222,11111222' 
TABS,ioos:station:wmo:42047:1,2009-10-02T23:00:00Z,27.8966,-93.5973,4.0,6.400382801,180.6268566,7.46,'11111222,11111222,11111222' 
TABS,ioos:station:wmo:42047:1,2009-10-02T23:30:00Z,27.8966,-93.5973,4.0,7.25482598,185.6164894,8.2,'11111222,11111222,11111222' 
TABS,ioos:station:wmo:42047:1,2009-10-03T00:00:00Z,27.8966,-93.5973,4.0,6.88281919,184.6670579,7.73,'11111222,11111222,11111222' 
TABS,ioos:station:wmo:42047:1,2009-10-03T00:30:00Z,27.8966,-93.5973,4.0,6.431990361,192.4806789,7.27,'11111222,11111222,11111222' 
TABS,ioos:station:wmo:42047:1,2009-10-03T01:00:00Z,27.8966,-93.5973,4.0,6.148178592,200.4689499,6.64,'11111222,11111222,11111222' 
TABS,ioos:station:wmo:42047:1,2009-10-03T01:30:00Z,27.8966,-93.5973,4.0,5.430073664,204.0162107,6.07,'11111222,11111222,11111222' 
TABS,ioos:station:wmo:42047:1,2009-10-03T02:00:00Z,27.8966,-93.5973,4.0,4.817686167,207.8417714,5.51,'11111222,11111222,11111222' 
TABS,ioos:station:wmo:42047:1,2009-10-03T02:30:00Z,27.8966,-93.5973,4.0,5.107249749,206.2641744,5.57,'11111222,11111222,11111222' 
TABS,ioos:station:wmo:42047:1,2009-10-03T03:00:00Z,27.8966,-93.5973,4.0,5.184688997,212.5560836,5.81,'11111222,11111222,11111222' 
TABS,ioos:station:wmo:42047:1,2009-10-03T03:30:00Z,27.8966,-93.5973,4.0,4.696221886,221.6336524,5.42,'11111222,11111222,11111222' 
TABS,ioos:station:wmo:42047:1,2009-10-03T04:00:00Z,27.8966,-93.5973,4.0,4.771959765,222.1122683,5.29,'11111222,11111222,11111222' 
TABS,ioos:station:wmo:42047:1,2009-10-03T04:30:00Z,27.8966,-93.5973,4.0,4.016179777,232.5880647,4.64,'11111222,11111222,11111222' 
TABS,ioos:station:wmo:42047:1,2009-10-03T05:00:00Z,27.8966,-93.5973,4.0,3.264061887,231.093556,3.67,'11111222,11111222,11111222' 
TABS,ioos:station:wmo:42047:1,2009-10-03T05:30:00Z,27.8966,-93.5973,4.0,3.484322029,212.458715,3.96,'11111222,11111222,11111222' 
TABS,ioos:station:wmo:42047:1,2009-10-03T06:00:00Z,27.8966,-93.5973,4.0,2.756972978,214.2089585,3.17,'11111222,11111222,11111222' 
TABS,ioos:station:wmo:42047:1,2009-10-03T06:30:00Z,27.8966,-93.5973,4.0,1.845887321,223.9026217,2.38,'11111222,11111222,11111222' 
TABS,ioos:station:wmo:42047:1,2009-10-03T07:00:00Z,27.8966,-93.5973,4.0,0.926606713,209.0547466,1.62,'11111222,11111222,11111222' 
TABS,ioos:station:wmo:42047:1,2009-10-03T07:30:00Z,27.8966,-93.5973,4.0,0.496487663,117.5976523,0.9,'11111222,11111222,11111222' 
TABS,ioos:station:wmo:42047:1,2009-10-03T08:00:00Z,27.8966,-93.5973,4.0,0.478016736,142.6509488,0.84,'11111222,11111222,11111222' 
TABS,ioos:station:wmo:42047:1,2009-10-03T08:30:00Z,27.8966,-93.5973,4.0,0.702139587,190.6699683,1.16,'11111222,11111222,11111222' 
TABS,ioos:station:wmo:42047:1,2009-10-03T09:00:00Z,27.8966,-93.5973,4.0,0.338378486,214.1598251,1.05,'11111222,11111222,11111222' 
TABS,ioos:station:wmo:42047:1,2009-10-03T09:30:00Z,27.8966,-93.5973,4.0,0.17691806,132.709711,0.5,'11111222,11111222,11111222' 
TABS,ioos:station:wmo:42047:1,2009-10-03T10:00:00Z,27.8966,-93.5973,4.0,0.747261668,105.5244956,1.05,'11111222,11111222,11111222' 
TABS,ioos:station:wmo:42047:1,2009-10-03T10:30:00Z,27.8966,-93.5973,4.0,1.108873302,82.74640143,1.79,'11111222,11111222,11111222' 
TABS,ioos:station:wmo:42047:1,2009-10-03T11:00:00Z,27.8966,-93.5973,4.0,1.32242202,93.46864207,1.9,'11111222,11111222,11111222' 
TABS,ioos:station:wmo:42047:1,2009-10-03T11:30:00Z,27.8966,-93.5973,4.0,1.559294712,96.25944259,2.13,'11111222,11111222,11111222' 
TABS,ioos:station:wmo:42047:1,2009-10-03T12:00:00Z,27.8966,-93.5973,4.0,2.560820181,67.74119466,3.21,'11111222,11111222,11111222' 
TABS,ioos:station:wmo:42047:1,2009-10-03T12:30:00Z,27.8966,-93.5973,4.0,2.784097699,65.8281914,3.59,'11111222,11111222,11111222' 
TABS,ioos:station:wmo:42047:1,2009-10-03T13:00:00Z,27.8966,-93.5973,4.0,2.551960031,87.75384177,3.08,'11111222,11111222,11111222' 
TABS,ioos:station:wmo:42047:1,2009-10-03T13:30:00Z,27.8966,-93.5973,4.0,2.71001845,89.788157,3.66,'11111222,11111222,11111222' 
TABS,ioos:station:wmo:42047:1,2009-10-03T14:00:00Z,27.8966,-93.5973,4.0,2.737005663,116.939886,3.22,'11111222,11111222,11111222' 
TABS,ioos:station:wmo:42047:1,2009-10-03T14:30:00Z,27.8966,-93.5973,4.0,3.210389384,135.5051101,4.01,'11111222,11111222,11111222' 
TABS,ioos:station:wmo:42047:1,2009-10-03T15:00:00Z,27.8966,-93.5973,4.0,4.427154843,131.6123676,5.24,'11111222,11111222,11111222' 
TABS,ioos:station:wmo:42047:1,2009-10-03T15:30:00Z,27.8966,-93.5973,4.0,5.466708333,135.9637998,6.31,'11111222,11111222,11111222' 
TABS,ioos:station:wmo:42047:1,2009-10-03T16:00:00Z,27.8966,-93.5973,4.0,5.841540893,135.9713353,6.38,'11111222,11111222,11111222' 
TABS,ioos:station:wmo:42047:1,2009-10-03T16:30:00Z,27.8966,-93.5973,4.0,5.939764305,135.27315,7.17,'11111222,11111222,11111222' 
TABS,ioos:station:wmo:42047:1,2009-10-03T17:00:00Z,27.8966,-93.5973,4.0,5.937844727,141.7021647,6.8,'11111222,11111222,11111222' 
TABS,ioos:station:wmo:42047:1,2009-10-03T17:30:00Z,27.8966,-93.5973,4.0,6.00733718,137.0914538,7.01,'11111222,11111222,11111222' 
TABS,ioos:station:wmo:42047:1,2009-10-03T18:00:00Z,27.8966,-93.5973,4.0,5.918868135,137.876387,6.59,'11111222,11111222,11111222' 
TABS,ioos:station:wmo:42047:1,2009-10-03T18:30:00Z,27.8966,-93.5973,4.0,5.790423128,142.4377393,6.39,'11111222,11111222,11111222' 
TABS,ioos:station:wmo:42047:1,2009-10-03T19:00:00Z,27.8966,-93.5973,4.0,6.196490942,142.4091556,6.78,'11111222,11111222,11111222' 
TABS,ioos:station:wmo:42047:1,2009-10-03T19:30:00Z,27.8966,-93.5973,4.0,5.597293989,141.1646416,6.33,'11111222,11111222,11111222' 
TABS,ioos:station:wmo:42047:1,2009-10-03T20:00:00Z,27.8966,-93.5973,4.0,5.670634885,137.78779,6.65,'11111222,11111222,11111222' 
TABS,ioos:station:wmo:42047:1,2009-10-03T20:30:00Z,27.8966,-93.5973,4.0,5.814232537,142.6179645,6.75,'11111222,11111222,11111222' 
TABS,ioos:station:wmo:42047:1,2009-10-03T21:00:00Z,27.8966,-93.5973,4.0,5.486055049,146.5998838,6.12,'11111222,11111222,11111222' 
TABS,ioos:station:wmo:42047:1,2009-10-03T21:30:00Z,27.8966,-93.5973,4.0,5.917609315,141.7941304,6.57,'11111222,11111222,11111222' 
TABS,ioos:station:wmo:42047:1,2009-10-03T22:00:00Z,27.8966,-93.5973,4.0,5.963094834,149.3496142,6.67,'11111222,11111222,11111222' 
TABS,ioos:station:wmo:42047:1,2009-10-03T22:30:00Z,27.8966,-93.5973,4.0,5.886730841,150.0380964,6.54,'11111222,11111222,11111222' 
TABS,ioos:station:wmo:42047:1,2009-10-03T23:00:00Z,27.8966,-93.5973,4.0,5.487312639,153.4819171,6.27,'11111222,11111222,11111222' 
TABS,ioos:station:wmo:42047:1,2009-10-03T23:30:00Z,27.8966,-93.5973,4.0,5.984588541,141.4451557,6.72,'11111222,11111222,11111222' 
TABS,ioos:station:wmo:42047:1,2009-10-04T00:00:00Z,27.8966,-93.5973,4.0,5.726464878,144.8115496,6.41,'11111222,11111222,11111222' 
TABS,ioos:station:wmo:42047:1,2009-10-04T00:30:00Z,27.8966,-93.5973,4.0,6.55064119,144.7574798,7.23,'11111222,11111222,11111222' 
TABS,ioos:station:wmo:42047:1,2009-10-04T01:00:00Z,27.8966,-93.5973,4.0,6.934904469,142.2050234,8.11,'11111222,11111222,11111222' 
TABS,ioos:station:wmo:42047:1,2009-10-04T01:30:00Z,27.8966,-93.5973,4.0,6.421814385,147.3990791,7.19,'11111222,11111222,11111222' 
TABS,ioos:station:wmo:42047:1,2009-10-04T02:00:00Z,27.8966,-93.5973,4.0,6.140032573,149.6766745,7.06,'11111222,11111222,11111222' 
TABS,ioos:station:wmo:42047:1,2009-10-04T02:30:00Z,27.8966,-93.5973,4.0,5.961778258,151.1136962,7.06,'11111222,11111222,11111222' 
TABS,ioos:station:wmo:42047:1,2009-10-04T03:00:00Z,27.8966,-93.5973,4.0,6.2488799,156.7173982,7.18,'11111222,11111222,11111222' 
TABS,ioos:station:wmo:42047:1,2009-10-04T03:30:00Z,27.8966,-93.5973,4.0,5.636488268,154.7991457,6.62,'11111222,11111222,11111222' 
TABS,ioos:station:wmo:42047:1,2009-10-04T04:00:00Z,27.8966,-93.5973,4.0,5.978503157,159.2310942,7.13,'11111222,11111222,11111222' 
TABS,ioos:station:wmo:42047:1,2009-10-04T04:30:00Z,27.8966,-93.5973,4.0,5.870689908,162.8616444,6.68,'11111222,11111222,11111222' 
TABS,ioos:station:wmo:42047:1,2009-10-04T05:00:00Z,27.8966,-93.5973,4.0,5.384161959,160.0171507,6.29,'11111222,11111222,11111222' 
TABS,ioos:station:wmo:42047:1,2009-10-04T05:30:00Z,27.8966,-93.5973,4.0,5.802016891,154.8044017,6.72,'11111222,11111222,11111222' 
TABS,ioos:station:wmo:42047:1,2009-10-04T06:00:00Z,27.8966,-93.5973,4.0,6.016061835,152.3703692,6.77,'11111222,11111222,11111222' 
TABS,ioos:station:wmo:42047:1,2009-10-04T06:30:00Z,27.8966,-93.5973,4.0,5.758966921,160.841675,6.47,'11111222,11111222,11111222' 
TABS,ioos:station:wmo:42047:1,2009-10-04T07:00:00Z,27.8966,-93.5973,4.0,6.131957273,166.8025234,7.04,'11111222,11111222,11111222' 
TABS,ioos:station:wmo:42047:1,2009-10-04T07:30:00Z,27.8966,-93.5973,4.0,6.424095267,156.0287218,8.47,'11111222,11111222,11111222' 
TABS,ioos:station:wmo:42047:1,2009-10-04T08:00:00Z,27.8966,-93.5973,4.0,8.260877677,159.7445703,9.45,'11111222,11111222,11111222' 
TABS,ioos:station:wmo:42047:1,2009-10-04T08:30:00Z,27.8966,-93.5973,4.0,8.138138608,162.7008257,9.23,'11111222,11111222,11111222' 
TABS,ioos:station:wmo:42047:1,2009-10-04T09:00:00Z,27.8966,-93.5973,4.0,8.263201559,157.0657076,9.32,'11111222,11111222,11111222' 
TABS,ioos:station:wmo:42047:1,2009-10-04T09:30:00Z,27.8966,-93.5973,4.0,7.319760925,159.3617604,8.31,'11111222,11111222,11111222' 
TABS,ioos:station:wmo:42047:1,2009-10-04T10:00:00Z,27.8966,-93.5973,4.0,7.51288227,159.346028,8.36,'11111222,11111222,11111222' 
TABS,ioos:station:wmo:42047:1,2009-10-04T10:30:00Z,27.8966,-93.5973,4.0,8.690966575,165.1325277,9.94,'11111222,11111222,11111222' 
TABS,ioos:station:wmo:42047:1,2009-10-04T11:00:00Z,27.8966,-93.5973,4.0,9.610957288,170.9005362,11.06,'11111222,11111222,11111222' 
TABS,ioos:station:wmo:42047:1,2009-10-04T11:30:00Z,27.8966,-93.5973,4.0,9.537950514,174.8873726,11.04,'11111222,11111222,11111222' 
TABS,ioos:station:wmo:42047:1,2009-10-04T12:00:00Z,27.8966,-93.5973,4.0,9.193807699,171.8084336,10.84,'11111222,11111222,11111222' 
TABS,ioos:station:wmo:42047:1,2009-10-04T12:30:00Z,27.8966,-93.5973,4.0,9.503683496,171.5290856,11.06,'11111222,11111222,11111222' 
TABS,ioos:station:wmo:42047:1,2009-10-04T13:00:00Z,27.8966,-93.5973,4.0,7.634408949,184.5830982,8.43,'11111222,11111222,11111222' 
TABS,ioos:station:wmo:42047:1,2009-10-04T13:30:00Z,27.8966,-93.5973,4.0,9.182265516,185.4996889,10.39,'11111222,11111222,11111222' 
TABS,ioos:station:wmo:42047:1,2009-10-04T14:00:00Z,27.8966,-93.5973,4.0,10.80185632,185.0457578,12.51,'11111222,11111222,11111222' 
TABS,ioos:station:wmo:42047:1,2009-10-04T14:30:00Z,27.8966,-93.5973,4.0,9.936362514,183.2887837,11.44,'11111222,11111222,11111222' 
TABS,ioos:station:wmo:42047:1,2009-10-04T15:00:00Z,27.8966,-93.5973,4.0,9.232161177,186.0936612,11.05,'11111222,11111222,11111222' 
TABS,ioos:station:wmo:42047:1,2009-10-04T15:30:00Z,27.8966,-93.5973,4.0,9.194443974,184.1790534,10.49,'11111222,11111222,11111222' 
TABS,ioos:station:wmo:42047:1,2009-10-04T16:00:00Z,27.8966,-93.5973,4.0,8.202889735,186.5100832,10.09,'11111222,11111222,11111222' 
TABS,ioos:station:wmo:42047:1,2009-10-04T16:30:00Z,27.8966,-93.5973,4.0,8.858154435,188.9627282,9.94,'11111222,11111222,11111222' 
TABS,ioos:station:wmo:42047:1,2009-10-04T17:00:00Z,27.8966,-93.5973,4.0,9.824052117,186.5464859,10.91,'11111222,11111222,11111222' 
TABS,ioos:station:wmo:42047:1,2009-10-04T17:30:00Z,27.8966,-93.5973,4.0,10.02287883,188.6072749,11.32,'11111222,11111222,11111222' 
TABS,ioos:station:wmo:42047:1,2009-10-04T18:00:00Z,27.8966,-93.5973,4.0,9.821303376,189.7310519,10.86,'11111222,11111222,11111222' 
TABS,ioos:station:wmo:42047:1,2009-10-04T18:30:00Z,27.8966,-93.5973,4.0,9.311756011,191.6479976,10.64,'11111222,11111222,11111222' 